Location: Bittkow
(50.3000°N, 19.0000°E)
Time: 21:59:39
(UTC+00:00)

Meteor 1-20 Rocket - Pass Details

Date: 19 September 2020
Orbit: 819 x 892 km, 81.2° (Epoch: 20 October)

Event Time Altitude Azimuth Distance (km) Brightness Sun altitude
Rises 01:26:59 0° 348° (NNW) 3,379 7.7 -27.0°
Reaches altitude 10° 01:29:24 10° 349° (N) 2,436 6.9 -26.7°
Maximum altitude 01:34:55 80° 77° (ENE) 838 4.1 -26.0°
Enters shadow 01:36:43 44° 158° (SSE) 1,121 4.6 -25.8°
